Flag Weather past 2 weeks in Guildford, England, United Kingdom

Now
63 °F

Scattered clouds.


Feels Like: 63 °F
Forecast: N/A
Wind: 8 mph from South

Location: Farnborough Airport

Current Time: Oct 30, 2014 at 2:50:55 PM

Latest Report: Oct 30, 2014 at 2:20 PM


Visibility: N/A

Pressure: 30.07 "Hg

Humidity: 88%

Dew point: 59 °F

Location of GuildfordLocation

Historic Weather in Guildford — Graph

°F

Guildford temperature yesterday

Maximum temperature yesterday: 55 °F (at 11:20 AM)
Minimum temperature yesterday: 52 °F (at 6:50 AM)
Average temperature yesterday: 54 °F

Past Weeks' High & Low Weather Summary

 TemperatureHumidityPressure
High64 °F (Oct 17, 11:50 AM)100% (Oct 15, 5:20 PM)30.30 "Hg (Oct 15, 5:20 PM)
Low43 °F (Oct 22, 6:50 AM)51% (Oct 21, 2:20 PM)29.53 "Hg (Oct 15, 8:20 PM)
Average58 °F82%29.96 "Hg
* Reported Oct 15 2:20 PM — Oct 30 1:50 PM, Guildford, Weather by CustomWeather, © 2014

Note: Actual official high and low records may vary slightly from our data, if they occured in-between our weather recording intervals... More about our weather records

Advertising

Guildford weather history for previous 24 hours

 ConditionsComfort  
Time TempWeatherWind HumidityBarometerVisibility
1:50 PM
Oct 30
63 °FScattered clouds.7 mph88%30.07 "HgN/A
1:20 PM63 °FPartly sunny.7 mph88%30.07 "HgN/A
12:50 PM63 °FPartly sunny.8 mph88%30.07 "Hg6 mi
12:20 PM63 °FPartly sunny.7 mph88%30.07 "Hg6 mi
11:50 AM63 °FPartly sunny.6 mph83%30.07 "Hg6 mi
11:20 AM61 °FPartly sunny.6 mph94%30.09 "Hg5 mi
10:50 AM61 °FPartly sunny.6 mph94%30.07 "Hg4 mi
10:20 AM59 °FBroken clouds.9 mph94%30.07 "Hg4 mi
9:50 AM61 °FPartly sunny.7 mph88%30.07 "Hg4 mi
9:20 AM59 °FBroken clouds.5 mph94%30.07 "Hg4 mi
8:50 AM59 °FFog.5 mph100%30.07 "Hg3 mi
8:20 AM59 °FFog.6 mph100%30.07 "Hg2 mi
7:50 AM59 °FFog.2 mph94%30.07 "Hg2 mi
7:20 AM59 °FFog.3 mph100%30.04 "Hg2 mi
6:50 AM59 °FFog.5 mph100%30.04 "Hg2 mi
9:20 PM
Oct 29
55 °FFog.3 mph100%30.07 "Hg1 mi
8:50 PM55 °FFog.5 mph100%30.07 "Hg1 mi
8:20 PM55 °FDrizzle. Fog.6 mph100%30.07 "Hg1 mi
7:50 PM55 °FDrizzle. Fog.5 mph100%30.07 "Hg1 mi
7:20 PM55 °FDrizzle. Fog.5 mph100%30.04 "Hg1 mi
6:50 PM54 °FDrizzle. Low clouds.6 mph100%30.04 "Hg2 mi
6:20 PM55 °FDrizzle. Low clouds.6 mph94%30.04 "Hg2 mi
5:50 PM55 °FDrizzle. Low clouds.6 mph100%30.04 "Hg2 mi
5:20 PM55 °FDrizzle. Low clouds.6 mph100%30.04 "Hg4 mi
4:50 PM54 °FDrizzle. Low clouds.7 mph100%30.01 "Hg4 mi
4:20 PM55 °FDrizzle. Low clouds.7 mph94%30.01 "Hg4 mi
3:50 PM55 °FDrizzle. Low clouds.7 mph94%30.01 "Hg4 mi
3:20 PM55 °FDrizzle. Fog.7 mph100%30.01 "Hg3 mi
2:50 PM55 °FDrizzle. Low clouds.7 mph100%30.01 "Hg3 mi
Weather by CustomWeather, © 2014

See weather overviewHow to use our weather pages